User: anonymous   Login
Location: Trois-Rivi�res
(46.3500°N, 72.5500°W)
Time: 13:50:19
(UTC-04:00)
Language:

Cosmos 1544 - Orbit

View from above orbital plane
View from above orbital plane
View from above satellite
View from above satellite

Ground track
Ground track

The orbit data is extracted from the following two-line orbital elements,

1 14819U 84027A   17116.73542591 +.00002310 +00000-0 +89218-4 0  9994
2 14819 082.4840 079.4718 0013271 215.9049 144.1299 15.25672666807967
Epoch (UTC): 26 April 2017 17:39:00
Eccentricity: 0.0013271
inclination: 82.4840°
perigee height: 479 km
apogee height: 498 km
right ascension of ascending node: 79.4718°
argument of perigee: 215.9049°
revolutions per day: 15.25672666
mean anomaly at epoch: 144.1299°
orbit number at epoch: 80796

The dashed part of the orbit path shows where the satellite is in the earth's shadow,  

DLR